CAPE
0 0 0 0 0 0 0 0 0 0 0 0 0 0 0 0 0 0 0 0 0 0 0 0 0 0 0 0 0 0 6 280 309 277 332 303 482 382 291 279 311 499 632 596
0 0 0 0 0 0 0 0 0 0 0 0 0 0 0 0 0 0 0 0 0 0 0 0 0 0 0 0 0 0 8 127 365 321 377 415 375 281 264 184 279 413 524 593
0 0 0 0 0 0 0 0 0 0 0 0 0 0 0 0 0 0 0 0 0 0 0 0 0 0 0 0 0 0 98 264 455 348 195 146 141 78 174 117 151 199 384 471
0 0 0 0 0 0 0 0 0 0 0 0 0 0 0 0 0 0 0 0 0 0 0 0 0 0 0 0 0 50 278 432 458 283 385 574 857 881 328 196 10 14 4 106
0 0 0 0 0 0 0 0 0 0 0 0 0 0 0 0 0 0 0 0 0 0 0 0 0 0 0 0 0 41 255 427 438 456 549 645 713 396 1 22 70 0 1 2
0 0 0 0 0 0 0 0 0 0 0 0 0 0 0 0 0 0 0 0 0 0 0 0 0 0 0 0 5 17 56 88 198 374 449 633 741 579 415 135 88 0 1 0
0 0 0 0 0 0 0 0 0 0 0 0 0 0 0 0 0 0 0 0 0 0 0 0 0 0 0 64 114 98 118 122 16 71 134 177 232 134 213 59 0 0 0 0
0 0 0 0 0 0 0 0 0 0 0 0 0 0 0 0 0 0 0 0 0 0 0 0 0 0 0 0 0 9 31 68 20 5 0 0 0 0 0 0 0 0 0 0
0 0 0 0 0 0 0 0 0 0 0 0 0 0 0 0 0 0 0 0 0 0 0 0 0 0 0 0 0 0 0 0 0 0 0 0 0 0 0 0 0 0 0 0
0 0 0 0 0 0 0 0 0 0 0 0 0 0 0 0 0 0 0 0 0 0 0 0 0 0 0 0 0 0 0 0 0 0 0 0 0 0 0 0 0 0 1 1
0 0 0 0 0 0 0 0 0 0 0 0 0 0 0 0 0 0 0 0 0 0 0 0 0 0 0 0 0 0 0 0 0 0 0 0 0 0 0 0 0 0 1 1
0 0 0 0 0 0 0 0 0 0 0 0 0 0 0 0 0 0 0 0 0 0 0 0 0 0 0 0 0 0 0 0 0 0 0 0 0 0 0 0 0 0 0 1
0 0 0 0 0 0 0 0 0 0 0 0 0 0 0 0 0 0 0 0 0 0 0 0 0 0 0 0 0 1 1 0 0 0 0 0 0 0 0 0 0 0 0 1
0 0 0 0 0 0 0 0 0 0 0 0 0 0 0 0 0 0 0 0 0 0 0 0 0 0 0 1 1 0 0 0 0 1 0 0 0 0 0 0 0 0 0 1
0 0 0 0 0 0 0 0 0 0 0 0 0 0 0 0 0 0 0 0 0 0 0 0 0 0 0 0 0 0 0 0 0 0 0 0 0 0 0 0 0 0 0 0
0 0 0 0 0 0 0 0 0 0 0 0 0 0 0 0 0 0 0 0 0 0 0 0 0 0 0 0 0 0 0 0 0 0 0 0 0 0 0 0 1 1 1 1
2 3 6 3 7 10 3 0 0 0 0 0 0 0 0 0 0 0 0 0 0 0 0 0 0 0 0 0 0 0 0 0 0 0 0 0 0 0 0 0 0 0 0 1
4 0 0 0 1 0 0 0 0 0 0 0 0 0 0 0 0 0 0 0 0 0 0 0 0 0 0 0 0 0 0 0 0 0 0 0 0 0 0 0 0 0 0 0
1 0 0 0 0 0 0 0 0 0 0 0 0 0 0 0 0 0 0 0 0 0 0 0 0 0 0 0 0 0 0 0 0 0 0 0 0 0 0 0 0 0 0 0
7 10 0 0 0 0 0 0 0 0 0 0 0 0 0 0 0 0 0 0 0 0 0 0 0 0 0 0 0 0 0 0 0 0 0 0 0 0 0 0 0 0 0 0
1 4 0 0 0 0 0 0 0 0 0 0 0 0 0 0 0 0 0 0 0 0 0 0 0 0 0 0 0 0 0 0 0 0 0 0 0 0 0 0 0 0 0 0
0 0 0 0 0 0 0 0 0 0 0 0 0 0 0 0 0 0 0 0 0 0 0 0 0 0 0 0 0 0 0 0 0 0 0 0 0 0 0 0 0 0 0 0
0 0 0 0 0 0 0 0 0 0 0 0 0 0 0 0 0 0 0 0 0 0 0 0 0 0 0 0 0 0 0 0 0 0 0 0 0 0 0 0 0 0 0 0
0 0 0 0 0 0 0 0 0 0 0 0 0 0 0 0 0 0 0 0 0 0 0 0 0 0 0 0 0 0 0 0 0 0 0 0 0 0 0 0 0 0 0 0
0 0 0 0 0 0 0 0 0 0 0 0 0 0 0 0 0 0 0 0 0 0 0 0 0 0 0 0 0 0 0 0 0 0 0 0 0 0 0 0 0 0 0 0
0 0 0 0 0 0 0 0 0 0 0 0 0 0 0 0 0 0 0 0 0 0 0 0 0 0 0 0 0 0 0 0 0 0 0 0 0 0 0 0 0 0 0 0
CIN
0 0 0 0 0 0 0 0 0 0 0 0 0 0 0 0 0 0 0 0 0 0 0 0 0 0 0 0 0 0 -126 -470 -475 -447 -391 -341 -312 -357 -368 -362 -318 -235 -181 -165
0 0 0 0 0 0 0 0 0 0 0 0 0 0 0 0 0 0 0 0 0 0 0 0 0 0 0 0 0 0 -283 -540 -439 -416 -383 -326 -350 -386 -393 -448 -334 -228 -178 -156
0 0 0 0 0 0 0 0 0 0 0 0 0 0 0 0 0 0 0 0 0 0 0 0 0 0 0 0 0 0 -596 -464 -362 -409 -476 -475 -460 -555 -439 -473 -422 -372 -236 -168
0 0 0 0 0 0 0 0 0 0 0 0 0 0 0 0 0 0 0 0 0 0 0 0 0 0 0 0 0 -656 -455 -398 -374 -442 -346 -244 -200 -178 -300 -390 -102 -430 -90 -317
0 0 0 0 0 0 0 0 0 0 0 0 0 0 0 0 0 0 0 0 0 0 0 0 0 0 0 0 0 -683 -460 -366 -353 -319 -260 -211 -179 -243 -336 -487 -404 -19 0 0
0 0 0 0 0 0 0 0 0 0 0 0 0 0 0 0 0 0 0 0 0 0 0 0 0 0 0 0 -669 -666 -585 -530 -434 -306 -273 -183 -142 -173 -199 -301 -322 0 0 0
0 0 0 0 0 0 0 0 0 0 0 0 0 0 0 0 0 0 0 0 0 0 0 0 0 0 0 -407 -386 -437 -433 -430 -588 -475 -393 -313 -253 -298 -212 -351 -32 0 0 0
0 0 0 0 0 0 0 0 0 0 0 0 0 0 0 0 0 0 0 0 0 0 0 0 0 0 0 0 0 -56 -489 -435 -540 -584 0 0 0 0 0 0 0 0 0 0
0 0 0 0 0 0 0 0 0 0 0 0 0 0 0 0 0 0 0 0 0 0 0 0 0 0 0 0 0 0 0 0 0 0 0 0 0 0 0 0 0 0 0 0
0 0 0 0 0 0 0 0 0 0 0 0 0 0 0 0 0 0 0 0 0 0 0 0 0 0 0 0 0 0 0 0 0 0 0 0 0 0 0 0 0 0 0 0
0 0 0 0 0 0 0 0 0 0 0 0 0 0 0 0 0 0 0 0 0 0 0 0 0 0 0 0 0 0 0 0 0 0 0 0 0 0 0 0 0 0 0 0
0 0 0 0 0 0 0 0 0 0 0 0 0 0 0 0 0 0 0 0 0 0 0 0 0 0 0 0 0 0 0 0 0 0 0 0 0 0 0 0 0 0 0 0
0 0 0 0 0 0 0 0 0 0 0 0 0 0 0 0 0 0 0 0 0 0 0 0 0 0 0 0 0 0 0 0 0 0 0 0 0 0 0 0 0 0 0 0
0 0 0 0 0 0 0 0 0 0 0 0 0 0 0 0 0 0 0 0 0 0 0 0 0 0 0 0 0 0 0 0 0 0 0 0 0 0 0 0 0 0 0 0
0 0 0 0 0 0 0 0 0 0 0 0 0 0 0 0 0 0 0 0 0 0 0 0 0 0 0 0 0 0 0 0 0 0 0 0 0 0 0 0 0 0 0 0
0 0 0 0 0 0 0 0 0 0 0 0 0 0 0 0 0 0 0 0 0 0 0 0 0 0 0 0 0 0 0 0 0 0 0 0 0 0 0 0 0 0 0 0
-13 -51 -22 -6 -14 -15 -6 0 0 0 0 0 0 0 0 0 0 0 0 0 0 0 0 0 0 0 0 0 0 0 0 0 0 0 0 0 0 0 0 0 0 0 0 0
-35 0 0 0 0 0 0 0 0 0 0 0 0 0 0 0 0 0 0 0 0 0 0 0 0 0 0 0 0 0 0 0 0 0 0 0 0 0 0 0 0 0 0 0
0 0 0 0 0 0 0 0 0 0 0 0 0 0 0 0 0 0 0 0 0 0 0 0 0 0 0 0 0 0 0 0 0 0 0 0 0 0 0 0 0 0 0 0
-0 -0 0 0 0 0 0 0 0 0 0 0 0 0 0 0 0 0 0 0 0 0 0 0 0 0 0 0 0 0 0 0 0 0 0 0 0 0 0 0 0 0 0 0
0 -0 -0 0 0 0 0 0 0 0 0 0 0 0 0 0 0 0 0 0 0 0 0 0 0 0 0 0 0 0 0 0 0 0 0 0 0 0 0 0 0 0 0 0
0 0 0 0 -0 0 0 0 0 0 0 0 0 0 0 0 0 0 0 0 0 0 0 0 0 0 0 0 0 0 0 0 0 0 0 0 0 0 0 0 0 0 0 0
0 0 0 0 0 0 0 0 0 0 0 0 0 0 0 0 0 0 0 0 0 0 0 0 0 0 0 0 0 0 0 0 0 0 0 0 0 0 0 0 0 0 0 0
0 0 0 0 0 0 0 0 0 0 0 0 0 0 0 0 0 0 0 0 0 0 0 0 0 0 0 0 0 0 0 0 0 0 0 0 0 0 0 0 0 0 0 0
0 0 0 0 0 0 0 0 0 0 0 0 0 0 0 0 0 0 0 0 0 0 0 0 0 0 0 0 0 0 0 0 0 0 0 0 0 0 0 0 0 0 0 0
0 0 0 0 0 0 0 0 0 0 0 0 0 0 0 0 0 0 0 0 0 0 0 0 0 0 0 0 0 0 0 0 0 0 0 0 0 0 0 0 0 -0 0 -0
Wind_Speed
28 32 32 26 26 28 27 28 31 27 25 32 29 30 33 31 26 24 23 29 39 41 38 32 31 29 21 13 11 11 9 9 7 7 6 5 10 10 9 6 5 5 5 6
33 41 33 30 29 30 32 35 36 35 32 32 38 29 28 30 25 21 33 43 42 39 39 39 33 25 18 11 6 5 6 6 6 6 4 6 3 3 4 4 4 4 4 4
39 37 30 32 31 30 30 32 33 35 35 34 36 47 34 25 22 22 23 32 34 39 39 29 21 19 16 11 1 2 4 4 4 3 4 9 5 8 6 5 5 6 6 7
39 36 34 31 31 26 36 28 32 32 33 39 27 50 40 35 36 30 28 35 35 34 23 15 16 15 13 10 6 3 4 3 3 3 4 4 8 9 11 10 10 10 13 12
37 31 31 34 32 24 31 23 24 26 31 37 32 38 40 30 32 28 26 32 32 24 14 12 13 14 11 9 7 5 4 5 5 5 5 6 9 12 13 13 13 13 16 18
38 30 28 30 26 21 22 26 27 27 31 45 31 31 32 30 33 31 25 26 27 18 10 9 11 11 9 8 7 6 5 6 6 7 8 9 11 13 15 16 16 17 19 20
37 38 28 23 25 23 23 26 35 38 37 46 30 32 31 29 28 26 29 28 22 14 9 8 9 8 8 7 6 5 5 6 7 9 11 13 14 15 17 18 19 19 20 21
47 49 37 30 32 30 26 26 34 44 45 48 33 36 34 26 23 24 28 27 18 12 9 9 7 5 5 4 5 5 6 8 10 11 12 13 14 15 17 19 20 21 21 22
40 45 32 29 26 25 29 33 29 40 38 48 43 44 39 31 29 29 27 24 15 10 8 8 6 4 3 4 6 6 7 9 11 13 15 15 16 17 19 20 21 23 23 23
37 44 32 30 24 29 29 21 32 31 44 49 45 46 36 34 30 30 27 22 14 9 8 8 8 7 6 7 9 10 11 12 13 14 16 17 18 19 20 21 23 25 27 26
34 37 36 26 34 33 31 35 31 31 36 45 53 48 35 33 29 27 21 15 9 9 8 7 8 8 8 9 10 12 13 13 15 17 18 20 20 20 22 24 25 26 25 26
35 33 43 38 28 27 29 32 32 39 43 42 47 48 33 33 31 24 18 12 11 9 10 12 11 11 11 12 13 13 14 14 15 16 18 20 21 22 24 26 27 28 29 28
30 37 42 41 39 34 34 32 31 37 39 47 45 44 31 31 29 24 15 14 13 12 10 11 11 12 13 14 14 15 16 17 17 18 20 21 22 24 27 29 29 29 30 30
25 35 40 49 42 33 40 40 38 39 44 44 41 45 41 33 25 20 14 13 13 12 12 10 11 12 13 15 16 17 18 19 20 21 23 25 27 28 29 29 30 30 31 30
31 42 41 46 41 39 42 43 39 39 39 39 39 38 36 27 23 19 15 15 14 14 14 14 14 15 16 16 18 18 19 21 22 25 28 32 33 33 32 31 31 31 30 30
35 45 43 54 46 46 50 48 43 39 39 41 41 44 32 24 18 17 16 16 17 16 15 15 15 17 19 20 21 22 24 25 27 31 34 35 35 36 35 35 35 35 35 33
40 45 45 58 48 49 54 49 46 46 43 41 44 39 29 27 24 21 20 19 18 16 15 16 16 17 20 21 22 25 26 27 29 30 32 34 36 37 36 36 36 36 36 34
41 39 39 46 40 52 43 37 38 40 40 38 40 35 31 28 24 21 20 20 17 17 18 18 17 19 21 23 24 25 27 28 30 34 36 37 38 38 39 38 38 37 35 35
35 39 45 45 46 47 49 38 36 36 46 36 34 30 27 23 24 27 22 21 20 20 20 20 19 20 21 24 25 27 31 33 34 36 36 36 36 38 39 40 39 37 35 34
40 38 39 37 43 51 43 31 24 24 50 24 25 26 25 22 31 29 22 21 20 21 22 23 25 27 29 31 31 31 31 33 35 35 37 37 37 38 39 38 37 36 33 35
32 37 46 48 48 46 36 23 15 35 41 21 22 24 23 28 30 25 20 22 23 24 25 23 24 26 29 29 30 34 33 36 34 36 37 37 37 38 37 38 38 38 36 35
32 33 38 39 42 50 23 21 35 34 30 26 22 21 23 26 25 23 19 20 21 21 23 22 25 28 26 27 30 35 36 36 37 38 39 40 40 40 40 40 41 38 37 36
41 35 35 32 38 29 24 29 27 24 26 24 21 22 21 22 23 19 17 17 18 18 20 21 24 27 25 29 31 37 38 37 39 39 41 41 43 43 42 43 43 40 35 31
36 30 36 34 35 31 28 27 25 24 26 24 22 19 17 18 14 12 13 15 17 20 22 23 25 28 30 30 34 36 37 38 40 44 43 42 43 45 43 39 37 35 34 30
35 29 35 37 33 29 30 26 23 23 22 20 18 15 12 10 11 12 13 15 18 20 24 25 29 31 32 33 36 36 36 37 40 41 42 43 42 41 40 37 35 33 29 26
31 32 36 42 32 32 32 24 23 22 20 16 13 12 12 12 12 12 14 15 18 22 24 27 30 33 35 36 36 35 35 37 39 42 41 39 38 37 37 38 38 31 29 28
Wind_Direction
267 266 264 271 275 282 293 295 297 304 310 307 304 304 305 308 309 310 309 311 309 308 312 318 319 316 306 271 250 226 225 235 222 238 252 250 193 187 185 196 226 250 270 265
263 262 269 277 278 280 284 289 293 301 304 303 302 298 304 304 303 302 306 303 311 311 312 314 320 323 319 299 252 219 215 216 217 242 247 295 203 254 252 277 282 258 252 257
258 268 271 270 275 278 282 284 293 296 304 304 307 297 301 306 305 307 314 315 317 314 313 320 332 340 341 338 302 163 268 265 257 263 280 300 311 310 298 290 292 300 299 300
263 264 269 272 274 275 280 289 291 297 303 299 311 298 296 301 299 307 317 316 318 322 328 336 343 346 350 349 12 16 295 287 282 282 285 279 296 297 304 302 307 308 311 311
262 267 260 266 271 272 284 298 298 301 299 301 300 302 304 301 297 306 318 318 321 326 331 338 341 346 341 345 359 3 337 308 305 302 299 299 303 306 308 308 309 313 313 315
262 270 267 270 273 270 290 294 299 302 298 291 294 298 297 299 300 308 317 323 321 324 320 329 332 342 347 354 2 355 346 321 320 318 315 309 304 306 305 306 308 311 312 313
261 261 271 271 274 279 277 289 290 291 288 288 297 293 280 302 305 309 316 318 318 314 300 306 312 324 333 352 358 354 352 332 324 323 322 316 312 310 309 309 310 311 311 312
254 261 256 263 265 276 270 273 280 286 288 290 295 292 300 298 300 307 312 313 311 296 280 285 300 316 333 351 354 343 339 332 325 327 331 328 323 317 316 315 316 315 314 314
259 264 273 268 265 260 276 267 279 286 290 288 289 292 298 297 300 305 309 310 297 276 258 262 277 292 321 330 326 332 333 330 329 329 327 326 325 323 322 322 319 317 317 315
263 269 273 276 266 263 267 279 280 279 283 283 288 293 293 302 300 302 303 298 282 256 249 257 262 266 289 312 317 318 318 318 323 329 330 329 328 328 325 324 321 319 316 316
257 265 273 270 265 263 264 263 278 282 278 284 288 292 300 295 297 303 304 294 267 250 249 256 267 272 287 307 315 318 320 321 322 324 323 328 330 330 326 323 320 319 321 320
245 266 265 265 281 267 262 268 258 274 281 284 282 270 296 303 306 301 293 278 271 268 273 279 279 281 287 297 306 312 315 316 318 320 322 323 326 325 324 324 324 321 318 318
238 258 265 270 271 271 269 270 272 272 284 278 280 268 302 302 298 293 276 267 267 269 272 281 282 284 288 295 302 307 310 312 314 316 317 318 319 320 320 320 320 319 318 317
236 259 257 261 271 272 269 269 271 270 273 274 268 282 289 292 291 286 270 263 263 267 273 277 285 291 297 302 305 308 311 311 311 312 312 312 311 314 315 315 315 316 317 316
250 261 262 266 274 271 274 275 269 265 265 270 274 277 285 288 282 273 265 261 261 267 274 282 285 291 298 303 308 312 313 314 313 312 312 311 311 314 314 313 314 314 315 314
259 266 268 269 269 271 272 272 269 269 268 270 275 276 286 283 278 268 264 261 264 272 278 282 288 291 296 300 304 306 308 310 310 310 309 310 311 311 312 312 312 311 310 310
259 264 267 268 273 273 269 262 267 269 267 270 269 273 276 268 265 265 264 262 260 266 275 284 289 295 298 302 305 305 307 309 311 311 312 312 313 314 314 313 311 310 308 306
260 260 269 265 274 267 271 275 272 269 269 266 272 274 267 262 258 259 266 262 261 266 274 283 289 294 296 300 303 306 308 309 310 310 311 310 311 312 313 313 311 310 308 305
262 259 262 265 266 272 273 273 271 272 274 268 265 271 268 263 264 264 261 260 262 267 273 283 288 291 296 298 302 306 305 305 309 309 311 315 316 316 315 311 310 309 307 306
253 258 260 265 266 268 278 281 279 279 275 267 264 265 259 259 261 267 258 265 266 274 279 282 285 290 293 298 303 307 312 313 313 315 315 316 316 317 316 315 315 312 307 304
258 258 255 261 266 270 274 283 279 275 285 277 264 261 255 260 271 274 265 267 270 270 275 282 288 293 298 305 309 310 314 312 317 317 316 316 316 315 315 314 314 313 310 305
261 262 264 262 261 265 270 268 272 285 287 287 278 264 258 272 275 272 264 263 265 271 278 287 292 297 308 314 315 312 312 315 315 315 315 316 317 316 315 314 313 311 309 307
263 265 264 264 269 276 270 280 278 283 286 289 283 279 272 272 277 274 266 262 270 278 287 294 298 302 311 314 315 313 314 316 316 316 316 317 316 315 315 314 312 311 307 305
266 271 267 269 272 275 275 278 282 280 285 288 288 282 275 276 272 269 270 273 279 285 290 296 300 304 308 313 314 313 314 315 315 314 315 317 316 316 317 317 316 313 307 302
271 265 266 270 276 278 278 279 279 282 286 286 285 279 268 267 270 274 279 282 286 290 295 298 300 304 308 313 313 314 316 318 315 315 315 316 317 318 319 319 315 312 308 302
270 270 264 271 275 275 279 279 276 277 278 274 269 269 272 273 273 280 284 288 292 294 297 300 303 305 308 312 315 317 318 316 316 316 318 319 318 320 320 317 315 312 305 301